SB KEPS @ AMSAT $ORB14037.O Orbital Elements 14037.OSCAR
HR AMSAT ORBITAL ELEMENTS FOR OSCAR SATELLITES FROM WA5QGD FORT WORTH,TX February 6, 2014 BID: ORB14037.O TO ALL RADIO AMATEURS BT
Satellite: AO-07 Catalog number: 07530 Epoch time: 14037.17633226 Element set: 888 Inclination: 101.4583 deg RA of node: 023.3942 deg Eccentricity: 0.0011874 Arg of perigee: 189.2726 deg Mean anomaly: 232.6537 deg Mean motion: 12.53601937 rev/day Decay rate: -1.6e-07 rev/day^2 Epoch rev: 79510 Checksum: 298
Satellite: FO-29 Catalog number: 24278 Epoch time: 14037.11307781 Element set: 301 Inclination: 098.5237 deg RA of node: 069.0087 deg Eccentricity: 0.0349494 Arg of perigee: 277.6898 deg Mean anomaly: 145.9553 deg Mean motion: 13.53014758 rev/day Decay rate: -1.5e-07 rev/day^2 Epoch rev: 86294 Checksum: 341
Satellite: SO-33 Catalog number: 25509 Epoch time: 14037.82492654 Element set: 684 Inclination: 031.4306 deg RA of node: 178.9121 deg Eccentricity: 0.0350279 Arg of perigee: 052.4462 deg Mean anomaly: 069.1525 deg Mean motion: 14.29296089 rev/day Decay rate: 4.82e-06 rev/day^2 Epoch rev: 79848 Checksum: 333
Satellite: RS-22 Catalog number: 27939 Epoch time: 14037.85333770 Element set: 198 Inclination: 097.8001 deg RA of node: 218.5520 deg Eccentricity: 0.0013194 Arg of perigee: 157.9794 deg Mean anomaly: 202.1987 deg Mean motion: 14.64857134 rev/day Decay rate: 1.291e-05 rev/day^2 Epoch rev: 55364 Checksum: 328
Satellite: VO-52 Catalog number: 28650 Epoch time: 14037.19547341 Element set: 652 Inclination: 097.5623 deg RA of node: 048.7707 deg Eccentricity: 0.0024502 Arg of perigee: 227.0549 deg Mean anomaly: 223.3346 deg Mean motion: 14.84720321 rev/day Decay rate: 3.107e-05 rev/day^2 Epoch rev: 47379 Checksum: 302
Satellite: HO-68 Catalog number: 36122 Epoch time: 14037.75894269 Element set: 301 Inclination: 100.2702 deg RA of node: 093.5138 deg Eccentricity: 0.0007586 Arg of perigee: 175.0160 deg Mean anomaly: 185.1021 deg Mean motion: 13.16311430 rev/day Decay rate: -4.3e-07 rev/day^2 Epoch rev: 19927 Checksum: 272
Satellite: AO-73 Catalog number: 39444 Epoch time: 14037.76238976 Element set: 57 Inclination: 097.7895 deg RA of node: 112.8379 deg Eccentricity: 0.0062414 Arg of perigee: 307.2224 deg Mean anomaly: 052.3314 deg Mean motion: 14.77470154 rev/day Decay rate: 2.230e-05 rev/day^2 Epoch rev: 1020 Checksum: 299
/EX SB KEPS @ AMSAT $ORB14037.D Orbital Elements 14037.MICROS
HR AMSAT ORBITAL ELEMENTS FOR THE MICROSATS FROM WA5QGD FORT WORTH,TX February 6, 2014 BID: ORB14037.D TO ALL RADIO AMATEURS BT
Satellite: UO-11 Catalog number: 14781 Epoch time: 14037.13580909 Element set: 408 Inclination: 097.8705 deg RA of node: 099.7234 deg Eccentricity: 0.0007770 Arg of perigee: 241.6021 deg Mean anomaly: 118.4409 deg Mean motion: 14.81280771 rev/day Decay rate: 1.274e-05 rev/day^2 Epoch rev: 60856 Checksum: 306
Satellite: AO-16 Catalog number: 20439 Epoch time: 14037.54987317 Element set: 949 Inclination: 098.4967 deg RA of node: 337.4268 deg Eccentricity: 0.0011080 Arg of perigee: 179.7969 deg Mean anomaly: 296.5757 deg Mean motion: 14.32276956 rev/day Decay rate: 2.79e-06 rev/day^2 Epoch rev: 25578 Checksum: 381
Satellite: LO-19 Catalog number: 20442 Epoch time: 14036.83325913 Element set: 886 Inclination: 098.4668 deg RA of node: 337.7795 deg Eccentricity: 0.0012197 Arg of perigee: 172.0967 deg Mean anomaly: 188.0412 deg Mean motion: 14.32482806 rev/day Decay rate: 2.41e-06 rev/day^2 Epoch rev: 25587 Checksum: 332
Satellite: AO-27 Catalog number: 22825 Epoch time: 14037.47413987 Element set: 590 Inclination: 098.6481 deg RA of node: 344.3590 deg Eccentricity: 0.0007599 Arg of perigee: 326.9863 deg Mean anomaly: 170.4801 deg Mean motion: 14.29651379 rev/day Decay rate: 2.60e-06 rev/day^2 Epoch rev: 6210 Checksum: 326
Satellite: IO-26 Catalog number: 22826 Epoch time: 14037.46991483 Element set: 347 Inclination: 098.6423 deg RA of node: 344.5965 deg Eccentricity: 0.0008022 Arg of perigee: 318.7631 deg Mean anomaly: 041.2944 deg Mean motion: 14.29944701 rev/day Decay rate: 2.86e-06 rev/day^2 Epoch rev: 6223 Checksum: 314
Satellite: GO-32 Catalog number: 25397 Epoch time: 14037.49629891 Element set: 270 Inclination: 098.4511 deg RA of node: 000.4848 deg Eccentricity: 0.0001052 Arg of perigee: 034.0144 deg Mean anomaly: 077.3176 deg Mean motion: 14.23400348 rev/day Decay rate: 1.48e-06 rev/day^2 Epoch rev: 80927 Checksum: 288
Satellite: NO-44 Catalog number: 26931 Epoch time: 14037.19324009 Element set: 529 Inclination: 067.0533 deg RA of node: 016.2262 deg Eccentricity: 0.0005663 Arg of perigee: 269.2298 deg Mean anomaly: 090.8154 deg Mean motion: 14.30034790 rev/day Decay rate: 2.04e-06 rev/day^2 Epoch rev: 64487 Checksum: 292
Satellite: SO-50 Catalog number: 27607 Epoch time: 14037.86946771 Element set: 297 Inclination: 064.5557 deg RA of node: 269.4923 deg Eccentricity: 0.0034265 Arg of perigee: 060.0433 deg Mean anomaly: 023.2014 deg Mean motion: 14.73387730 rev/day Decay rate: 1.170e-05 rev/day^2 Epoch rev: 59828 Checksum: 316
Satellite: CO-55 Catalog number: 27844 Epoch time: 14036.86554752 Element set: 849 Inclination: 098.7004 deg RA of node: 047.5305 deg Eccentricity: 0.0008629 Arg of perigee: 296.1416 deg Mean anomaly: 183.7770 deg Mean motion: 14.21379962 rev/day Decay rate: 4.92e-06 rev/day^2 Epoch rev: 54992 Checksum: 349
Satellite: CO-57 Catalog number: 27848 Epoch time: 14037.82868176 Element set: 791 Inclination: 098.7095 deg RA of node: 048.1188 deg Eccentricity: 0.0008560 Arg of perigee: 300.1795 deg Mean anomaly: 183.9316 deg Mean motion: 14.21084301 rev/day Decay rate: 3.90e-06 rev/day^2 Epoch rev: 54998 Checksum: 343
Satellite: AO-51 Catalog number: 28375 Epoch time: 14037.44665963 Element set: 765 Inclination: 098.2354 deg RA of node: 348.9248 deg Eccentricity: 0.0083637 Arg of perigee: 028.4849 deg Mean anomaly: 117.9150 deg Mean motion: 14.41265177 rev/day Decay rate: 6.40e-06 rev/day^2 Epoch rev: 50507 Checksum: 337
Satellite: CP3 Catalog number: 31129 Epoch time: 14037.86976755 Element set: 668 Inclination: 097.9207 deg RA of node: 022.5902 deg Eccentricity: 0.0100355 Arg of perigee: 057.4620 deg Mean anomaly: 006.7232 deg Mean motion: 14.54193910 rev/day Decay rate: 2.275e-05 rev/day^2 Epoch rev: 36109 Checksum: 299
Satellite: CO-65 Catalog number: 32785 Epoch time: 14037.65935956 Element set: 861 Inclination: 097.7192 deg RA of node: 093.1686 deg Eccentricity: 0.0012790 Arg of perigee: 255.9788 deg Mean anomaly: 222.0022 deg Mean motion: 14.84645580 rev/day Decay rate: 3.513e-05 rev/day^2 Epoch rev: 31265 Checksum: 338
Satellite: PRISM Catalog number: 33493 Epoch time: 14037.89295470 Element set: 619 Inclination: 098.2378 deg RA of node: 208.2088 deg Eccentricity: 0.0018400 Arg of perigee: 146.7931 deg Mean anomaly: 213.4498 deg Mean motion: 14.87816281 rev/day Decay rate: 5.246e-05 rev/day^2 Epoch rev: 27279 Checksum: 335
Satellite: SOHLA-1 Catalog number: 33496 Epoch time: 14036.88965880 Element set: 267 Inclination: 098.1532 deg RA of node: 157.6534 deg Eccentricity: 0.0005277 Arg of perigee: 303.3437 deg Mean anomaly: 169.1992 deg Mean motion: 14.70570005 rev/day Decay rate: 8.89e-06 rev/day^2 Epoch rev: 27021 Checksum: 323
Satellite: TISAT-1 Catalog number: 36799 Epoch time: 14037.78617856 Element set: 884 Inclination: 098.0208 deg RA of node: 128.8952 deg Eccentricity: 0.0014693 Arg of perigee: 030.8037 deg Mean anomaly: 329.4035 deg Mean motion: 14.84554374 rev/day Decay rate: 3.241e-05 rev/day^2 Epoch rev: 19336 Checksum: 336
Satellite: STUDSAT Catalog number: 36801 Epoch time: 14037.55231609 Element set: 764 Inclination: 098.0348 deg RA of node: 134.4494 deg Eccentricity: 0.0010099 Arg of perigee: 004.8565 deg Mean anomaly: 120.6826 deg Mean motion: 14.92462047 rev/day Decay rate: 1.3719e-04 rev/day^2 Epoch rev: 19361 Checksum: 301
Satellite: ALMASAT-1 Catalog number: 38078 Epoch time: 14037.16156002 Element set: 923 Inclination: 069.4744 deg RA of node: 012.7320 deg Eccentricity: 0.0642354 Arg of perigee: 204.9926 deg Mean anomaly: 290.9723 deg Mean motion: 14.38546811 rev/day Decay rate: 3.6266e-04 rev/day^2 Epoch rev: 10271 Checksum: 297
Satellite: XATCOBEO Catalog number: 38082 Epoch time: 14037.86752644 Element set: 921 Inclination: 069.4593 deg RA of node: 308.8047 deg Eccentricity: 0.0408768 Arg of perigee: 170.4813 deg Mean anomaly: 259.2432 deg Mean motion: 14.98331822 rev/day Decay rate: 1.18671e-03 rev/day^2 Epoch rev: 10451 Checksum: 322
Satellite: CUBEBUG-1 Catalog number: 39153 Epoch time: 14037.78445453 Element set: 831 Inclination: 098.0542 deg RA of node: 118.3475 deg Eccentricity: 0.0019088 Arg of perigee: 051.5491 deg Mean anomaly: 308.7429 deg Mean motion: 14.77103870 rev/day Decay rate: 1.776e-05 rev/day^2 Epoch rev: 4230 Checksum: 307
Satellite: ESTCUBE-1 Catalog number: 39161 Epoch time: 14037.71816139 Element set: 800 Inclination: 098.1070 deg RA of node: 119.5645 deg Eccentricity: 0.0011407 Arg of perigee: 089.7549 deg Mean anomaly: 270.4973 deg Mean motion: 14.69515790 rev/day Decay rate: 1.400e-05 rev/day^2 Epoch rev: 4043 Checksum: 295
/EX SB KEPS @ AMSAT $ORB14037.W Orbital Elements 14037.WEATHER
HR AMSAT ORBITAL ELEMENTS FOR WEATHER SATELLITES FROM WA5QGD FORT WORTH,TX February 6, 2014 BID: ORB14037.W TO ALL RADIO AMATEURS BT
Satellite: NOAA-10 Catalog number: 16969 Epoch time: 14037.55916348 Element set: 662 Inclination: 098.5251 deg RA of node: 065.0267 deg Eccentricity: 0.0011144 Arg of perigee: 277.6838 deg Mean anomaly: 195.8814 deg Mean motion: 14.27712298 rev/day Decay rate: 2.01e-06 rev/day^2 Epoch rev: 42538 Checksum: 324
Satellite: NOAA-11 Catalog number: 19531 Epoch time: 14037.34588271 Element set: 685 Inclination: 098.6909 deg RA of node: 119.6617 deg Eccentricity: 0.0010266 Arg of perigee: 315.0471 deg Mean anomaly: 044.9871 deg Mean motion: 14.15054462 rev/day Decay rate: 1.12e-06 rev/day^2 Epoch rev: 30923 Checksum: 297
